Location: Valladolid
(41.6523°N, 4.7245°W)
Time: 19:00:59
(UTC+02:00)

ISS - Visible Passes

Search period start: 22 April 2021 00:00
Search period end: 02 May 2021 00:00
Orbit: 418 x 421 km, 51.6° (Epoch: 22 April)

Date Brightness Start Highest point End Pass type
(mag) Time Alt. Az. Time Alt. Az. Time Alt. Az.
23 Apr -0.9 06:32:21 10° SSE 06:33:23 11° SE 06:34:24 10° ESE visible
25 Apr -2.3 06:32:04 10° SSW 06:35:05 31° SE 06:38:08 10° ENE visible
26 Apr -1.6 05:46:25 15° SSE 05:47:51 19° SE 05:50:19 10° E visible
27 Apr -0.9 05:01:00 11° ESE 05:01:00 11° ESE 05:01:46 10° ESE visible
27 Apr -3.8 06:33:58 12° SW 06:37:00 86° NW 06:40:23 10° NE visible
28 Apr -3.4 05:48:28 34° SSW 05:49:39 55° SE 05:52:58 10° ENE visible
29 Apr -2.3 05:02:54 30° ESE 05:02:54 30° ESE 05:05:24 10° ENE visible
29 Apr -2.6 06:35:59 10° W 06:39:07 35° NNW 06:42:17 10° NE visible
30 Apr -0.7 04:17:16 11° E 04:17:16 11° E 04:17:35 10° E visible
30 Apr -3.3 05:50:14 29° W 05:51:39 53° NNW 05:54:58 10° NE visible
01 May -3.6 05:04:32 71° NE 05:04:32 71° NE 05:07:37 10° NE visible
01 May -1.7 06:38:48 10° WNW 06:41:26 21° NNW 06:44:05 10° NE visible
